Bemidji, MN

3:43 PM CDT on August 19, 2017 (GMT -0500)
Bemidji-Beltrami County

Weather History for KBJI - October, 2012

Change the Weather History Date:

Sunday, October 7, 2012

  Actual Average Record
Temperature  
Mean Temperature 40 °F -  
Max Temperature 51 °F 55 °F 84 °F (2003)
Min Temperature 30 °F 35 °F 16 °F (1952)
Degree Days  
Heating Degree Days 24    
Moisture  
Dew Point 24 °F    
Average Humidity 56    
Maximum Humidity 82    
Minimum Humidity 30    
Precipitation  
Precipitation 0.00 in - - ()
Sea Level Pressure  
Sea Level Pressure 29.92 in    
Wind  
Wind Speed 7 mph (SSW)    
Max Wind Speed 15 mph    
Max Gust Speed 23 mph    
Visibility 10 miles    
Events      
Averages and records for this station are not official NWS values.
T = Trace of Precipitation, MM = Missing Value Source: NWS Daily Summary

Daily Weather History Graph

Daily Weather History Graph

Search for Another Location

Airport or City:

Trip Planner

Search our weather history database for the weather conditions in past years. The results will help you decide how hot, cold, wet, or windy it might be!

Date:

Astronomy

Oct. 07, 2012 Rise Set
Actual Time 7:27 AM CDT 6:46 PM CDT
Civil Twilight 6:57 AM CDT 7:16 PM CDT
Nautical Twilight 6:21 AM CDT 7:52 PM CDT
Astronomical Twilight 5:45 AM CDT 8:28 PM CDT
Moon 11:42 PM CDT (10/7) 2:22 PM CDT (10/7)
Length of Visible Light 12h 19m
Length of Day
11h 18m
Waning Gibbous, 56% of the Moon is Illuminated
Oct 7
Waning Gibbous
Oct 8
Last Quarter
Oct 15
New
Oct 21
First Quarter
Oct 29
Full

Hourly Weather History & Observations

Time (CDT) Temp. Windchill Dew Point Humidity Pressure Visibility Wind Dir Wind Speed Gust Speed Precip Events Conditions
12:15 AM 30.7 °F 24.9 °F 25.3 °F 80% 30.12 in 10.0 mi SSW 5.8 mph - N/A   Clear
12:35 AM 30.2 °F 24.3 °F 25.2 °F 82% 30.11 in 10.0 mi SSW 5.8 mph - N/A   Clear
12:55 AM 30.4 °F 24.5 °F 25.0 °F 80% 30.11 in 10.0 mi SW 5.8 mph - N/A   Clear
1:15 AM 30.4 °F 24.5 °F 24.8 °F 80% 30.10 in 10.0 mi SW 5.8 mph - N/A   Clear
1:35 AM 30.6 °F 24.7 °F 24.4 °F 78% 30.09 in 10.0 mi SSW 5.8 mph - N/A   Clear
1:55 AM 30.4 °F 24.5 °F 24.4 °F 79% 30.09 in 10.0 mi SSW 5.8 mph - N/A   Clear
2:15 AM 30.4 °F 24.5 °F 24.6 °F 79% 30.08 in 10.0 mi SW 5.8 mph - N/A   Clear
2:35 AM 30.7 °F 24.1 °F 24.4 °F 77% 30.07 in 10.0 mi SW 6.9 mph - N/A   Clear
2:55 AM 30.7 °F 24.1 °F 24.4 °F 77% 30.07 in 10.0 mi SW 6.9 mph - N/A   Clear
3:15 AM 30.9 °F 23.5 °F 24.4 °F 77% 30.06 in 10.0 mi SSW 8.1 mph - N/A   Clear
3:35 AM 31.1 °F 24.5 °F 24.3 °F 76% 30.05 in 10.0 mi SW 6.9 mph - N/A   Clear
3:55 AM 31.1 °F 25.4 °F 24.1 °F 75% 30.04 in 10.0 mi SSW 5.8 mph - N/A   Clear
4:15 AM 30.9 °F 26.2 °F 23.9 °F 75% 30.03 in 10.0 mi SSW 4.6 mph - N/A   Clear
4:35 AM 30.9 °F 24.3 °F 24.3 °F 76% 30.03 in 10.0 mi SSW 6.9 mph - N/A   Clear
4:55 AM 31.1 °F 24.5 °F 24.3 °F 76% 30.03 in 10.0 mi SSW 6.9 mph - N/A   Clear
5:15 AM 31.1 °F 24.5 °F 23.9 °F 75% 30.02 in 10.0 mi SSW 6.9 mph - N/A   Clear
5:35 AM 31.1 °F 25.4 °F 23.9 °F 75% 30.01 in 10.0 mi SSW 5.8 mph - N/A   Mostly Cloudy
5:55 AM 31.3 °F 23.9 °F 23.9 °F 74% 30.00 in 10.0 mi SSW 8.1 mph - N/A   Mostly Cloudy
6:15 AM 31.1 °F 24.5 °F 23.9 °F 75% 30.00 in 10.0 mi SSW 6.9 mph - N/A   Scattered Clouds
6:35 AM 30.7 °F 24.1 °F 23.7 °F 75% 29.99 in 10.0 mi SSW 6.9 mph - N/A   Scattered Clouds
6:55 AM 30.6 °F 24.7 °F 23.2 °F 74% 29.98 in 10.0 mi SSW 5.8 mph - N/A   Clear
7:15 AM 30.4 °F 24.5 °F 23.0 °F 74% 29.98 in 10.0 mi SW 5.8 mph - N/A   Clear
7:35 AM 30.6 °F 23.8 °F 23.0 °F 74% 29.97 in 10.0 mi SSW 6.9 mph - N/A   Scattered Clouds
7:55 AM 30.4 °F 24.5 °F 22.8 °F 73% 29.97 in 10.0 mi SSW 5.8 mph - N/A   Scattered Clouds
8:15 AM 30.9 °F 24.3 °F 23.0 °F 72% 29.97 in 10.0 mi SSW 6.9 mph - N/A   Clear
8:35 AM 32.0 °F 24.2 °F 23.2 °F 70% 29.96 in 10.0 mi SW 9.2 mph - N/A   Clear
8:55 AM 32.5 °F 24.8 °F 23.7 °F 70% 29.96 in 10.0 mi SW 9.2 mph - N/A   Mostly Cloudy
9:15 AM 33.3 °F 26.4 °F 24.1 °F 69% 29.96 in 10.0 mi SW 8.1 mph - N/A   Overcast
9:35 AM 34.5 °F 27.3 °F 24.6 °F 67% 29.96 in 10.0 mi SW 9.2 mph - N/A   Mostly Cloudy
9:55 AM 35.6 °F 28.6 °F 24.8 °F 65% 29.95 in 10.0 mi SW 9.2 mph 16.1 mph N/A   Mostly Cloudy
10:15 AM 36.9 °F 30.7 °F 24.8 °F 62% 29.95 in 10.0 mi SW 8.1 mph - N/A   Mostly Cloudy
10:35 AM 37.9 °F 31.5 °F 24.6 °F 59% 29.95 in 10.0 mi SW 9.2 mph - N/A   Scattered Clouds
10:55 AM 39.0 °F 31.8 °F 24.3 °F 55% 29.94 in 10.0 mi SSW 11.5 mph - N/A   Mostly Cloudy
11:15 AM 39.6 °F 33.5 °F 24.3 °F 54% 29.94 in 10.0 mi SSW 9.2 mph - N/A   Scattered Clouds
11:35 AM 40.3 °F 33.0 °F 23.9 °F 52% 29.94 in 10.0 mi SSW 12.7 mph - N/A   Scattered Clouds
11:55 AM 41.4 °F 34.3 °F 23.9 °F 50% 29.93 in 10.0 mi SSW 12.7 mph - N/A   Scattered Clouds
12:15 PM 42.6 °F 36.3 °F 23.9 °F 48% 29.92 in 10.0 mi SSW 11.5 mph - N/A   Scattered Clouds
12:35 PM 44.8 °F 39.0 °F 24.4 °F 45% 29.91 in 10.0 mi SSW 11.5 mph - N/A   Clear
12:55 PM 45.5 °F 40.3 °F 23.5 °F 42% 29.91 in 10.0 mi SW 10.4 mph - N/A   Clear
1:15 PM 46.2 °F 40.8 °F 23.5 °F 41% 29.90 in 10.0 mi SSW 11.5 mph - N/A   Clear
1:35 PM 48.2 °F - 22.8 °F 37% 29.89 in 10.0 mi SW 12.7 mph 17.3 mph N/A   Clear
1:55 PM 49.5 °F - 22.1 °F 34% 29.88 in 10.0 mi WSW 12.7 mph 19.6 mph N/A   Clear
2:15 PM 49.8 °F - 21.4 °F 33% 29.87 in 10.0 mi SW 15.0 mph 23.0 mph N/A   Clear
2:35 PM 50.5 °F - 20.5 °F 31% 29.86 in 10.0 mi SW 15.0 mph 20.7 mph N/A   Clear
2:55 PM 51.1 °F - 20.3 °F 30% 29.85 in 10.0 mi SW 11.5 mph 18.4 mph N/A   Clear
3:15 PM 51.3 °F - 20.8 °F 30% 29.85 in 10.0 mi WSW 9.2 mph 17.3 mph N/A   Clear
3:35 PM 50.9 °F - 21.0 °F 31% 29.84 in 10.0 mi WSW 10.4 mph - N/A   Mostly Cloudy
3:55 PM 51.3 °F - 21.0 °F 31% 29.83 in 10.0 mi WSW 15.0 mph - N/A   Mostly Cloudy
4:15 PM 49.6 °F - 21.4 °F 33% 29.82 in 10.0 mi WSW 11.5 mph 19.6 mph N/A   Mostly Cloudy
4:35 PM 50.9 °F - 21.9 °F 32% 29.82 in 10.0 mi SW 10.4 mph - N/A   Scattered Clouds
4:55 PM 51.3 °F - 21.9 °F 32% 29.82 in 10.0 mi SSW 10.4 mph - N/A   Scattered Clouds
5:15 PM 51.1 °F - 21.7 °F 32% 29.81 in 10.0 mi SW 10.4 mph - N/A   Mostly Cloudy
5:35 PM 50.5 °F - 21.6 °F 32% 29.81 in 10.0 mi WSW 10.4 mph - N/A   Scattered Clouds
5:55 PM 49.8 °F - 21.6 °F 33% 29.80 in 10.0 mi SW 6.9 mph - N/A   Clear
6:15 PM 49.3 °F - 21.9 °F 34% 29.81 in 10.0 mi SW 6.9 mph - N/A   Clear
6:35 PM 48.2 °F - 21.9 °F 36% 29.81 in 10.0 mi SW 5.8 mph - N/A   Clear
6:55 PM 47.1 °F - 22.5 °F 38% 29.80 in 10.0 mi Calm Calm - N/A   Clear
7:15 PM 45.3 °F 44.0 °F 22.5 °F 40% 29.80 in 10.0 mi South 3.5 mph - N/A   Clear
7:35 PM 43.9 °F 42.3 °F 22.5 °F 43% 29.80 in 10.0 mi South 3.5 mph - N/A   Mostly Cloudy
7:55 PM 42.3 °F 40.5 °F 23.2 °F 47% 29.79 in 10.0 mi South 3.5 mph - N/A   Overcast
8:15 PM 41.2 °F 39.2 °F 24.1 °F 51% 29.79 in 10.0 mi South 3.5 mph - N/A   Overcast
8:55 PM 41.7 °F 37.3 °F 27.0 °F 56% 29.78 in 10.0 mi South 6.9 mph - N/A   Overcast
9:15 PM 43.2 °F 40.5 °F 27.1 °F 53% 29.78 in 10.0 mi South 4.6 mph - N/A   Overcast
9:35 PM 43.0 °F 40.3 °F 27.1 °F 54% 29.77 in 10.0 mi South 4.6 mph - N/A   Overcast
9:55 PM 43.2 °F 40.5 °F 26.6 °F 52% 29.77 in 10.0 mi South 4.6 mph - N/A   Overcast
10:15 PM 43.3 °F 39.9 °F 25.7 °F 50% 29.76 in 10.0 mi South 5.8 mph - N/A   Overcast
10:35 PM 43.5 °F 40.9 °F 24.4 °F 47% 29.76 in 10.0 mi South 4.6 mph - N/A   Overcast
10:55 PM 43.9 °F 41.3 °F 23.7 °F 45% 29.75 in 10.0 mi South 4.6 mph - N/A   Overcast
11:15 PM 43.5 °F 40.1 °F 23.7 °F 46% 29.74 in 10.0 mi South 5.8 mph - N/A   Overcast
11:35 PM 43.0 °F 40.3 °F 23.5 °F 46% 29.73 in 10.0 mi South 4.6 mph - N/A   Overcast
11:55 PM 42.6 °F 39.9 °F 23.5 °F 47% 29.73 in 10.0 mi SSW 4.6 mph - N/A   Overcast